Location: Torrington
(42.0650°N, 104.1810°W)
Time: 18:47:30
(UTC-06:00)

Daily predictions for brighter satellites

Satellite Brightness Start Highest point End
(mag) Time Altitude Azimuth Time Altitude Azimuth Time Altitude Azimuth
EO 1 Delta rocket 4.4 18:24:48 10° SSE 18:31:33 78° ENE 18:36:54 10° N
IRS-1A Rocket 4.4 18:26:39 10° SSE 18:32:31 75° ENE 18:38:26 10° N
Cosmos 2219 Rocket 3.0 18:27:53 10° N 18:32:44 29° NE 18:37:33 10° ESE
Meteor 1-28 Rocket 3.1 18:33:18 10° NNE 18:37:06 73° ESE 18:40:50 10° S
Cosmos 2221 3.0 18:33:59 10° SSE 18:37:58 37° E 18:41:59 10° NNE
METEOR-M 4.3 18:33:04 10° SE 18:38:12 50° ENE 18:43:22 10° N
Cosmos 1315 Rocket 2.9 18:36:05 10° N 18:40:07 57° ENE 18:44:11 10° SSE
ALOS 3.1 18:37:11 10° SE 18:41:13 30° ENE 18:45:16 10° N
Cosmos 921 Rocket 3.0 18:37:38 10° NNW 18:42:05 78° ENE 18:46:26 10° SSE
Cosmos 1743 Rocket 4.0 18:39:47 10° NNW 18:44:09 67° W 18:48:32 10° S
SKYMED 2 3.9 18:39:58 10° NNE 18:44:10 46° E 18:48:20 10° S
Meteor 2-1 Rocket 4.3 18:38:26 10° S 18:44:14 79° E 18:50:10 10° NNE
Ariane Rocket 4.1 18:40:16 10° S 18:45:13 51° W 18:50:12 10° NNW
Cosmos 2218 Rocket 4.5 18:39:10 10° SSW 18:45:15 66° W 18:51:23 10° N
GP-B 3.1 18:43:04 10° N 18:47:32 89° E 18:51:58 10° S
Cosmos 1484 Rocket 3.8 18:45:42 10° S 18:49:17 48° W 18:52:54 10° NNW
Cosmos 1626 3.4 18:48:36 10° NNW 18:52:11 45° W 18:55:45 10° SSW
Cosmos 1727 Rocket 4.2 18:46:00 10° N 18:52:23 80° W 18:58:41 10° S
Cosmos 1842 Rocket 4.2 18:49:28 10° SSW 18:53:53 62° W 18:58:17 10° N
Cosmos 1703 4.1 18:52:51 10° NNW 18:56:43 56° W 19:00:31 10° S
Cosmos 1908 3.2 18:55:28 10° S 18:59:22 85° E 19:03:18 10° N
SJ-6B 4.3 19:01:35 16° ENE 19:01:35 16° ENE 19:03:51 10° NNE
Lacrosse 5 rocket 3.9 19:00:22 10° NNW 19:01:36 11° N 19:02:49 10° NNE
MTI 4.4 18:59:19 10° N 19:02:29 58° WNW 19:05:38 10° SSW
MONITOR-E 4.0 18:59:32 10° SSE 19:02:36 77° ENE 19:05:41 10° N
Cosmos 2333 4.2 18:56:53 10° NNW 19:02:38 73° ENE 19:08:22 10° SSE
Cosmos 1500 Rocket 4.5 19:00:01 10° NNW 19:04:14 52° W 19:08:24 10° S
Cosmos 2123 Rocket 4.5 19:01:47 10° N 19:07:33 37° ENE 19:13:18 10° SE
Aureole 2 Rocket 2.9 19:03:46 10° N 19:07:37 50° ENE 19:11:35 10° SE
Cosmos 44 3.1 19:04:15 10° SW 19:08:36 78° WNW 19:12:57 10° NNE
H-2A R/B 3.8 19:07:18 15° ESE 19:09:33 25° ENE 19:12:49 10° NNE
Cosmos 2237 Rocket 3.0 19:05:05 10° N 19:10:08 31° NE 19:13:39 17° ESE
Cosmos 1269 Rocket 3.9 19:05:26 10° S 19:10:40 73° ESE 19:15:57 10° NNE
SL-8 R/B 4.5 19:08:39 10° W 19:13:17 45° NNW 19:16:43 17° NE
Abrixas rocket 3.5 19:11:54 10° NW 19:14:49 28° N 19:16:04 22° NE
Cosmos 2227 Rocket 3.0 19:13:05 10° SSE 19:17:52 29° ESE 19:21:11 17° NE
Iridium 4 Rocket 3.7 19:16:56 10° S 19:22:34 83° E 19:28:31 10° N
SL-16 R/B 3.6 19:18:43 10° N 19:22:37 19° NE 19:23:15 18° ENE
NOSS 0 Rocket 4.0 19:17:08 10° NNW 19:23:12 55° ENE 19:28:59 11° SE
Cosmos 1300 2.9 19:19:37 10° SSE 19:23:18 47° E 19:27:00 10° NNE
SPOT 3 Rocket 3.7 19:18:07 10° S 19:23:18 77° WSW 19:28:34 10° NNW
Atlas Centaur 2 4.3 19:22:42 10° SSW 19:23:46 11° SSW 19:24:51 10° S
Gbstr 26 Del rocket 3.6 19:19:48 10° WNW 19:24:47 85° SW 19:29:43 16° SE
Sich 1 3.1 19:22:51 10° N 19:27:10 56° E 19:31:30 10° SSE
BREEZE-M DEB (TANK) 4.2 19:22:58 10° WNW 19:27:34 87° SSW 19:47:58 10° SE
Cosmos 494 Rocket 4.3 19:24:02 10° S 19:28:49 41° ESE 19:33:04 13° NE
Cosmos 2360 Rocket 4.3 19:25:16 10° NW 19:30:02 29° WSW 19:34:48 10° SSW
Abrixas 2.9 19:29:30 10° W 19:31:17 38° NW 19:31:17 38° NW
COSMO-SKYMED 1 3.4 19:27:59 10° N 19:32:13 52° WNW 19:36:25 10° SSW
FREGAT/IRIS 3.7 19:33:17 30° NNE 19:33:17 30° NNE 19:35:07 10° N
Resurs 01 Rocket 3.5 19:35:06 15° NNE 19:35:06 15° NNE 19:36:19 10° NNE
Cosmos 1980 3.8 19:29:17 10° NNW 19:34:47 50° ENE 19:37:55 24° SE
Cosmos 1110 Rocket 4.0 19:32:13 10° NNW 19:37:30 63° ENE 19:41:39 16° SSE
Cosmos 2098 Rocket 3.8 19:34:07 10° SSW 19:38:50 74° W 19:44:55 10° N
BREEZE-M R/B 2.8 19:38:51 10° SSW 19:41:04 42° SSE 19:41:04 42° SSE
CZ-4C R/B 2.5 19:36:47 10° SW 19:41:58 65° NW 19:47:57 10° NNE
Meteor 2-3 Rocket 4.3 19:37:03 10° N 19:42:17 34° ENE 19:42:50 34° E
FENGYUN 3A 3.8 19:37:22 10° S 19:42:45 75° WSW 19:48:11 10° NNW
Cosmos 1805 Rocket 4.0 19:39:04 10° NNW 19:43:25 62° W 19:47:46 10° S
PSLV R/B 4.0 19:41:40 10° SW 19:44:12 37° S 19:44:12 37° S
USA 32 4.4 19:39:42 10° N 19:44:38 40° E 19:45:20 38° E
COSMOS 2428 3.6 19:39:12 10° NW 19:44:40 50° WSW 19:50:07 10° S
Hubble Space Telescope 3.2 19:44:34 10° S 19:45:14 10° S 19:45:28 10° SSE
Cosmos 44 Rocket 4.5 19:41:34 10° WSW 19:45:58 39° NW 19:50:25 10° NNE
Cosmos 2333 Rocket 2.2 19:41:52 10° NNW 19:47:40 90° ENE 19:53:14 11° SSE
Cosmos 2219 3.8 19:43:02 10° SW 19:48:42 59° WNW 19:54:23 10° NNE
Meteor 2-10 3.9 19:46:17 10° S 19:51:19 90° WNW 19:56:30 10° N
Cosmos 1666 Rocket 3.6 19:48:31 10° N 19:52:52 78° W 19:57:10 10° S
Cosmos 1726 3.5 19:51:00 10° SSW 19:54:29 40° WNW 19:57:59 10° N
Cosmos 2297 Rocket 2.3 19:49:31 10° S 19:54:55 49° ESE 19:56:00 43° ENE
Cosmos 1328 Rocket 3.4 19:52:45 10° S 20:02:05 - NNE 19:57:04 64° E
Cosmos 1633 Rocket 3.0 19:53:02 10° N 19:57:29 85° W 20:01:55 10° S
Envisat 4.1 20:05:02 29° NNE 20:05:02 29° NNE 20:08:01 10° N
Cosmos 2251 Rocket 3.4 19:59:34 10° S 20:04:47 65° ESE 20:06:04 49° NE
Cosmos 2082 3.7 19:59:49 10° S 20:05:25 59° ESE 20:06:19 52° ENE
Cosmos 2219 Rocket 3.2 20:11:32 10° NW 20:16:49 43° WSW 20:22:05 10° S
Cosmos 2084 4.3 20:13:38 10° NW 20:17:13 40° WSW 20:17:29 39° SW
ALOS 4.2 20:14:35 10° SSW 20:18:36 28° W 20:22:39 10° NW
Meteor 2-2 Rocket 4.4 20:15:11 10° SSW 20:20:51 70° W 20:26:30 10° N
Thor Agena Rocket 4.3 20:18:09 10° N 20:23:04 50° WNW 20:27:56 10° SW
USA 267 3.7 20:35:57 44° S 20:35:57 44° S 20:40:48 10° SSW
Meteor 1-27 4.3 20:32:54 10° SSW 20:40:09 51° N 20:44:28 10° N
Lacrosse 5 rocket 4.1 20:40:01 10° NNW 20:40:29 11° NNW 20:40:29 11° NNW
BREEZE-M DEB (TANK) 3.7 20:40:34 10° WNW 20:45:54 46° NW 20:45:54 46° NW
Cosmos 2237 Rocket 3.3 20:48:59 10° NW 20:54:17 41° WSW 20:55:32 36° SW
MOS 1-B Rocket 4.5 20:56:56 51° SW 20:57:44 55° W 21:03:49 10° NNW
Cosmos 2227 Rocket 3.3 20:56:23 10° SW 21:01:42 41° WNW 21:03:07 35° NNW
SL-16 R/B 3.3 21:01:42 10° NNW 21:05:09 38° NNW 21:05:09 38° NNW
Resurs 01 Rocket 4.3 21:12:42 15° NNW 21:12:42 15° NNW 21:13:31 10° NNW
USA 234 4.2 21:11:06 36° N 21:11:06 36° N 21:15:49 10° NW
Cosmos 2297 Rocket 4.2 21:34:29 10° WSW 21:37:55 24° WNW 21:37:55 24° WNW
